QPF
0.01 0.01 0.01 0.01 0.00 0.00 0.00 0.00 0.00 0.00 0.00 0.00 0.00 0.00 0.00 0.00 0.00 0.01 0.01 0.00 0.00 0.00 0.01 0.02 0.02 0.02 0.02 0.02 0.03 0.02 0.02 0.02 0.01 0.01 0.02 0.02 0.02 0.03 0.02 0.01 0.02 0.01 0.01 0.00 0.00 0.01 0.01 0.01 0.01
0.02 0.02 0.01 0.01 0.00 0.00 0.00 0.00 0.00 0.00 0.00 0.00 0.00 0.00 0.00 0.00 0.00 0.00 0.01 0.00 0.00 0.01 0.01 0.02 0.02 0.02 0.02 0.02 0.02 0.02 0.02 0.02 0.02 0.02 0.01 0.01 0.01 0.02 0.02 0.02 0.02 0.02 0.01 0.01 0.00 0.00 0.01 0.01 0.00
0.02 0.03 0.02 0.01 0.00 0.00 0.00 0.00 0.00 0.00 0.00 0.00 0.00 0.00 0.00 0.00 0.00 0.00 0.00 0.00 0.01 0.01 0.02 0.02 0.02 0.02 0.02 0.02 0.02 0.02 0.02 0.02 0.02 0.03 0.02 0.01 0.01 0.01 0.02 0.03 0.03 0.02 0.01 0.01 0.00 0.00 0.00 0.00 0.00
0.04 0.04 0.03 0.01 0.00 0.00 0.00 0.00 0.00 0.00 0.00 0.00 0.00 0.00 0.00 0.00 0.00 0.00 0.00 0.00 0.01 0.03 0.04 0.03 0.02 0.02 0.02 0.01 0.02 0.02 0.02 0.02 0.02 0.02 0.03 0.02 0.01 0.01 0.01 0.02 0.02 0.01 0.01 0.01 0.01 0.00 0.00 0.01 0.00
0.07 0.06 0.04 0.02 0.00 0.00 0.00 0.00 0.00 0.00 0.00 0.00 0.00 0.00 0.00 0.00 0.00 0.00 0.00 0.01 0.02 0.03 0.04 0.04 0.02 0.02 0.02 0.01 0.02 0.02 0.02 0.02 0.02 0.02 0.02 0.03 0.02 0.01 0.01 0.01 0.01 0.01 0.01 0.01 0.01 0.01 0.01 0.01 0.01
0.10 0.08 0.04 0.02 0.00 0.00 0.00 0.00 0.00 0.00 0.00 0.00 0.00 0.00 0.00 0.00 0.00 0.00 0.00 0.01 0.02 0.02 0.03 0.03 0.03 0.03 0.03 0.02 0.01 0.02 0.02 0.03 0.02 0.02 0.02 0.02 0.03 0.01 0.00 0.00 0.00 0.01 0.01 0.01 0.01 0.01 0.01 0.01 0.01
0.11 0.10 0.04 0.01 0.01 0.00 0.00 0.00 0.00 0.00 0.00 0.00 0.00 0.00 0.00 0.00 0.00 0.01 0.01 0.02 0.02 0.02 0.03 0.03 0.04 0.03 0.03 0.02 0.01 0.01 0.02 0.03 0.03 0.03 0.03 0.02 0.03 0.02 0.01 0.00 0.00 0.00 0.01 0.01 0.01 0.01 0.01 0.01 0.01
0.11 0.09 0.04 0.01 0.01 0.01 0.00 0.00 0.00 0.00 0.00 0.00 0.00 0.00 0.00 0.01 0.01 0.01 0.02 0.02 0.03 0.04 0.04 0.04 0.04 0.04 0.04 0.03 0.01 0.01 0.01 0.02 0.03 0.03 0.03 0.03 0.02 0.02 0.01 0.00 0.00 0.00 0.00 0.01 0.01 0.01 0.01 0.01 0.01
0.10 0.10 0.05 0.02 0.01 0.01 0.00 0.00 0.00 0.00 0.00 0.00 0.00 0.00 0.00 0.01 0.02 0.02 0.02 0.02 0.03 0.03 0.04 0.05 0.06 0.06 0.06 0.05 0.02 0.02 0.01 0.02 0.02 0.02 0.02 0.03 0.04 0.04 0.02 0.01 0.00 0.00 0.00 0.00 0.01 0.01 0.01 0.01 0.00
0.09 0.10 0.05 0.03 0.02 0.01 0.01 0.00 0.00 0.00 0.01 0.01 0.00 0.00 0.01 0.01 0.02 0.02 0.02 0.02 0.02 0.02 0.03 0.04 0.04 0.06 0.06 0.06 0.05 0.05 0.04 0.03 0.03 0.04 0.04 0.03 0.05 0.07 0.05 0.02 0.00 0.00 0.00 0.00 0.01 0.01 0.01 0.01 0.01
0.07 0.08 0.05 0.03 0.02 0.01 0.01 0.00 0.00 0.00 0.00 0.01 0.00 0.00 0.01 0.01 0.02 0.02 0.02 0.02 0.03 0.02 0.03 0.03 0.03 0.05 0.07 0.08 0.07 0.05 0.05 0.04 0.04 0.05 0.07 0.07 0.08 0.08 0.09 0.05 0.02 0.02 0.01 0.01 0.01 0.01 0.01 0.01 0.01
0.04 0.04 0.04 0.03 0.02 0.01 0.01 0.01 0.00 0.00 0.00 0.00 0.00 0.00 0.01 0.02 0.02 0.02 0.02 0.02 0.02 0.02 0.02 0.02 0.02 0.04 0.05 0.07 0.09 0.06 0.04 0.04 0.04 0.03 0.04 0.06 0.07 0.08 0.09 0.08 0.05 0.04 0.04 0.04 0.04 0.03 0.02 0.02 0.02
0.04 0.03 0.03 0.03 0.02 0.02 0.02 0.00 0.00 0.00 0.00 0.00 0.00 0.00 0.01 0.01 0.01 0.01 0.01 0.01 0.02 0.02 0.02 0.02 0.02 0.02 0.03 0.05 0.08 0.07 0.05 0.04 0.04 0.04 0.04 0.05 0.05 0.06 0.07 0.08 0.07 0.05 0.05 0.05 0.05 0.03 0.02 0.02 0.02
0.02 0.02 0.03 0.04 0.02 0.01 0.01 0.00 0.00 0.00 0.00 0.00 0.00 0.00 0.01 0.01 0.01 0.01 0.01 0.01 0.01 0.01 0.02 0.02 0.02 0.02 0.02 0.03 0.06 0.05 0.05 0.04 0.04 0.05 0.05 0.05 0.05 0.05 0.05 0.06 0.07 0.07 0.06 0.05 0.04 0.04 0.04 0.03 0.03
0.01 0.01 0.02 0.03 0.02 0.01 0.00 0.00 0.00 0.00 0.00 0.00 0.00 0.00 0.01 0.01 0.01 0.01 0.00 0.00 0.01 0.01 0.01 0.01 0.02 0.02 0.02 0.03 0.04 0.04 0.05 0.05 0.05 0.05 0.05 0.04 0.04 0.04 0.05 0.05 0.04 0.05 0.05 0.05 0.04 0.04 0.05 0.03 0.02
0.01 0.02 0.02 0.01 0.01 0.01 0.00 0.01 0.00 0.00 0.00 0.00 0.00 0.00 0.00 0.00 0.00 0.00 0.00 0.00 0.00 0.01 0.01 0.01 0.01 0.02 0.02 0.02 0.03 0.04 0.04 0.05 0.05 0.06 0.06 0.04 0.03 0.03 0.04 0.05 0.05 0.05 0.06 0.05 0.04 0.03 0.03 0.03 0.03
0.02 0.02 0.02 0.01 0.01 0.00 0.00 0.00 0.00 0.00 0.00 0.00 0.00 0.00 0.00 0.00 0.00 0.00 0.00 0.00 0.00 0.01 0.01 0.00 0.00 0.01 0.01 0.01 0.01 0.03 0.03 0.03 0.04 0.04 0.06 0.06 0.04 0.04 0.03 0.04 0.05 0.05 0.05 0.05 0.04 0.03 0.03 0.02 0.02
0.02 0.01 0.01 0.01 0.00 0.00 0.01 0.00 0.00 0.00 0.00 0.00 0.00 0.00 0.00 0.00 0.00 0.00 0.00 0.00 0.00 0.00 0.00 0.00 0.00 0.00 0.00 0.00 0.00 0.01 0.02 0.02 0.02 0.03 0.03 0.05 0.07 0.07 0.05 0.04 0.04 0.05 0.04 0.05 0.04 0.03 0.03 0.02 0.02
0.01 0.01 0.01 0.00 0.00 0.01 0.01 0.01 0.00 0.00 0.00 0.00 0.00 0.00 0.00 0.00 0.00 0.00 0.00 0.00 0.00 0.00 0.00 0.00 0.00 0.00 0.00 0.00 0.00 0.00 0.01 0.01 0.01 0.01 0.01 0.02 0.03 0.05 0.06 0.06 0.05 0.05 0.05 0.04 0.05 0.06 0.04 0.03 0.03
0.00 0.00 0.01 0.01 0.00 0.01 0.01 0.00 0.00 0.00 0.00 0.00 0.00 0.00 0.00 0.00 0.00 0.00 0.00 0.00 0.00 0.00 0.00 0.00 0.00 0.00 0.00 0.00 0.00 0.00 0.00 0.01 0.01 0.01 0.01 0.00 0.00 0.01 0.01 0.03 0.04 0.05 0.07 0.08 0.08 0.08 0.07 0.05 0.04
0.00 0.00 0.00 0.00 0.00 0.01 0.01 0.00 0.00 0.00 0.00 0.00 0.00 0.00 0.00 0.00 0.00 0.00 0.00 0.00 0.00 0.00 0.00 0.00 0.00 0.00 0.00 0.00 0.00 0.00 0.00 0.00 0.00 0.00 0.00 0.00 0.00 0.00 0.00 0.00 0.01 0.02 0.03 0.05 0.06 0.06 0.07 0.06 0.04
0.00 0.00 0.00 0.00 0.00 0.01 0.01 0.01 0.00 0.00 0.00 0.00 0.00 0.00 0.00 0.00 0.00 0.00 0.00 0.00 0.00 0.00 0.00 0.00 0.00 0.00 0.00 0.00 0.00 0.00 0.00 0.00 0.00 0.00 0.00 0.00 0.00 0.00 0.00 0.00 0.00 0.00 0.01 0.02 0.03 0.03 0.03 0.03 0.03
0.00 0.00 0.00 0.00 0.00 0.00 0.00 0.00 0.00 0.00 0.00 0.00 0.00 0.00 0.00 0.00 0.00 0.00 0.00 0.00 0.00 0.00 0.00 0.00 0.00 0.00 0.00 0.00 0.00 0.00 0.00 0.00 0.00 0.00 0.00 0.00 0.00 0.00 0.00 0.00 0.00 0.00 0.00 0.01 0.01 0.01 0.01 0.02 0.03
0.00 0.00 0.00 0.00 0.00 0.00 0.00 0.00 0.00 0.00 0.00 0.00 0.00 0.00 0.00 0.00 0.00 0.00 0.00 0.00 0.00 0.00 0.00 0.00 0.00 0.00 0.00 0.00 0.00 0.00 0.00 0.00 0.00 0.00 0.00 0.00 0.00 0.00 0.00 0.00 0.00 0.00 0.00 0.00 0.00 0.01 0.01 0.02 0.02
0.00 0.00 0.01 0.01 0.01 0.00 0.00 0.00 0.00 0.00 0.00 0.00 0.00 0.00 0.00 0.00 0.00 0.00 0.00 0.00 0.00 0.00 0.00 0.00 0.00 0.00 0.00 0.00 0.00 0.00 0.00 0.00 0.00 0.00 0.00 0.00 0.00 0.00 0.00 0.00 0.00 0.00 0.01 0.01 0.01 0.01 0.01 0.01 0.02
0.00 0.00 0.01 0.01 0.00 0.00 0.00 0.00 0.00 0.00 0.00 0.00 0.00 0.00 0.00 0.00 0.00 0.00 0.00 0.00 0.00 0.00 0.00 0.00 0.00 0.00 0.00 0.00 0.00 0.00 0.00 0.00 0.00 0.00 0.00 0.00 0.00 0.00 0.00 0.00 0.00 0.00 0.00 0.00 0.00 0.00 0.01 0.01 0.01
0.00 0.00 0.00 0.00 0.00 0.00 0.00 0.00 0.00 0.00 0.00 0.00 0.00 0.00 0.00 0.00 0.00 0.00 0.00 0.00 0.00 0.00 0.00 0.00 0.00 0.00 0.00 0.00 0.00 0.00 0.00 0.00 0.00 0.00 0.00 0.00 0.00 0.00 0.00 0.00 0.00 0.00 0.00 0.00 0.00 0.00 0.00 0.01 0.01
0.00 0.00 0.00 0.00 0.01 0.00 0.00 0.00 0.00 0.00 0.00 0.00 0.00 0.00 0.00 0.00 0.00 0.00 0.00 0.00 0.00 0.00 0.00 0.00 0.00 0.00 0.00 0.00 0.00 0.00 0.00 0.00 0.00 0.00 0.00 0.00 0.00 0.00 0.00 0.00 0.00 0.00 0.00 0.00 0.00 0.00 0.00 0.00 0.01
0.00 0.00 0.00 0.00 0.00 0.00 0.00 0.00 0.00 0.00 0.00 0.00 0.00 0.00 0.00 0.00 0.00 0.00 0.00 0.00 0.00 0.00 0.00 0.00 0.00 0.00 0.00 0.00 0.00 0.00 0.00 0.00 0.00 0.00 0.00 0.00 0.00 0.00 0.00 0.00 0.00 0.00 0.00 0.00 0.00 0.00 0.00 0.00 0.00
0.00 0.00 0.00 0.00 0.00 0.00 0.00 0.00 0.00 0.00 0.00 0.00 0.00 0.00 0.00 0.00 0.00 0.00 0.00 0.00 0.00 0.00 0.00 0.00 0.00 0.00 0.00 0.00 0.00 0.00 0.00 0.00 0.00 0.00 0.00 0.00 0.00 0.00 0.00 0.00 0.00 0.00 0.00 0.00 0.00 0.00 0.00 0.00 0.00
MSLP
1012.78 1013.34 1013.95 1014.48 1014.80 1014.81 1014.50 1013.89 1013.11 1012.33 1011.72 1011.43 1011.53 1012.04 1012.85 1013.81 1014.75 1015.49 1015.93 1016.05 1015.90 1015.59 1015.27 1015.06 1015.04 1015.23 1015.57 1015.99 1016.37 1016.65 1016.77 1016.75 1016.65 1016.54 1016.49 1016.54 1016.69 1016.91 1017.15 1017.33 1017.41 1017.38 1017.26 1017.09 1016.93 1016.81 1016.76 1016.79 1016.85
1012.99 1013.53 1014.05 1014.44 1014.57 1014.41 1013.95 1013.26 1012.49 1011.79 1011.34 1011.25 1011.56 1012.24 1013.19 1014.22 1015.18 1015.89 1016.27 1016.33 1016.13 1015.79 1015.46 1015.24 1015.22 1015.41 1015.74 1016.15 1016.52 1016.78 1016.91 1016.92 1016.85 1016.77 1016.74 1016.80 1016.93 1017.11 1017.29 1017.40 1017.43 1017.36 1017.22 1017.05 1016.91 1016.82 1016.81 1016.86 1016.93
1013.17 1013.64 1014.02 1014.23 1014.19 1013.87 1013.32 1012.62 1011.93 1011.40 1011.17 1011.31 1011.85 1012.70 1013.76 1014.83 1015.76 1016.41 1016.73 1016.72 1016.47 1016.11 1015.77 1015.55 1015.53 1015.70 1016.00 1016.37 1016.70 1016.94 1017.07 1017.08 1017.03 1016.98 1016.97 1017.02 1017.13 1017.26 1017.37 1017.42 1017.38 1017.28 1017.12 1016.97 1016.86 1016.82 1016.85 1016.93 1017.02
1013.26 1013.61 1013.84 1013.87 1013.66 1013.24 1012.66 1012.03 1011.50 1011.19 1011.21 1011.61 1012.36 1013.35 1014.47 1015.54 1016.41 1016.98 1017.21 1017.14 1016.86 1016.49 1016.16 1015.96 1015.94 1016.09 1016.35 1016.65 1016.93 1017.12 1017.21 1017.21 1017.17 1017.13 1017.12 1017.17 1017.25 1017.33 1017.38 1017.37 1017.29 1017.15 1017.00 1016.87 1016.80 1016.81 1016.88 1017.00 1017.11
1013.22 1013.43 1013.50 1013.37 1013.05 1012.58 1012.04 1011.55 1011.22 1011.17 1011.46 1012.09 1013.01 1014.09 1015.22 1016.23 1017.00 1017.46 1017.61 1017.49 1017.21 1016.87 1016.59 1016.43 1016.42 1016.55 1016.77 1017.00 1017.18 1017.29 1017.32 1017.29 1017.23 1017.18 1017.18 1017.21 1017.27 1017.32 1017.33 1017.27 1017.16 1017.01 1016.87 1016.77 1016.74 1016.79 1016.90 1017.04 1017.17
1013.04 1013.12 1013.04 1012.80 1012.41 1011.96 1011.52 1011.20 1011.11 1011.32 1011.85 1012.67 1013.70 1014.81 1015.88 1016.79 1017.44 1017.79 1017.86 1017.72 1017.47 1017.20 1016.99 1016.90 1016.93 1017.06 1017.22 1017.36 1017.45 1017.46 1017.40 1017.31 1017.21 1017.15 1017.14 1017.16 1017.20 1017.23 1017.21 1017.13 1017.00 1016.86 1016.73 1016.66 1016.66 1016.74 1016.87 1017.02 1017.13
1012.77 1012.73 1012.54 1012.22 1011.83 1011.44 1011.14 1011.03 1011.17 1011.61 1012.34 1013.28 1014.35 1015.42 1016.39 1017.15 1017.66 1017.91 1017.93 1017.80 1017.61 1017.44 1017.35 1017.34 1017.43 1017.55 1017.66 1017.72 1017.70 1017.61 1017.46 1017.29 1017.15 1017.06 1017.04 1017.05 1017.08 1017.10 1017.07 1016.98 1016.85 1016.70 1016.59 1016.52 1016.53 1016.62 1016.74 1016.87 1016.96
1012.47 1012.33 1012.08 1011.74 1011.39 1011.10 1010.96 1011.04 1011.39 1012.01 1012.86 1013.86 1014.90 1015.88 1016.71 1017.33 1017.70 1017.86 1017.86 1017.77 1017.67 1017.62 1017.65 1017.74 1017.88 1018.00 1018.07 1018.06 1017.94 1017.75 1017.51 1017.28 1017.09 1016.98 1016.94 1016.95 1016.97 1016.97 1016.93 1016.84 1016.70 1016.55 1016.43 1016.36 1016.36 1016.41 1016.50 1016.59 1016.64
1012.22 1012.03 1011.75 1011.44 1011.16 1010.99 1011.00 1011.26 1011.76 1012.50 1013.41 1014.39 1015.36 1016.21 1016.89 1017.36 1017.62 1017.72 1017.73 1017.70 1017.71 1017.78 1017.92 1018.10 1018.28 1018.41 1018.44 1018.36 1018.16 1017.89 1017.58 1017.30 1017.09 1016.96 1016.90 1016.90 1016.92 1016.91 1016.85 1016.74 1016.58 1016.41 1016.27 1016.17 1016.12 1016.13 1016.17 1016.20 1016.19
1012.12 1011.90 1011.63 1011.37 1011.18 1011.14 1011.29 1011.67 1012.28 1013.07 1013.97 1014.89 1015.74 1016.46 1016.99 1017.34 1017.53 1017.61 1017.64 1017.69 1017.80 1017.97 1018.20 1018.44 1018.65 1018.77 1018.76 1018.62 1018.37 1018.05 1017.71 1017.41 1017.18 1017.04 1016.99 1016.97 1016.97 1016.94 1016.85 1016.71 1016.52 1016.31 1016.12 1015.97 1015.87 1015.81 1015.78 1015.74 1015.67
1012.18 1011.97 1011.74 1011.55 1011.46 1011.54 1011.80 1012.27 1012.92 1013.71 1014.55 1015.37 1016.09 1016.68 1017.10 1017.37 1017.51 1017.60 1017.69 1017.81 1018.00 1018.25 1018.53 1018.79 1018.99 1019.08 1019.03 1018.85 1018.57 1018.24 1017.90 1017.61 1017.39 1017.26 1017.21 1017.18 1017.16 1017.09 1016.96 1016.77 1016.53 1016.28 1016.03 1015.82 1015.65 1015.52 1015.41 1015.31 1015.19
1012.41 1012.23 1012.05 1011.95 1011.97 1012.14 1012.49 1013.01 1013.66 1014.40 1015.15 1015.85 1016.44 1016.91 1017.25 1017.48 1017.63 1017.76 1017.90 1018.10 1018.34 1018.62 1018.91 1019.15 1019.31 1019.35 1019.26 1019.06 1018.77 1018.45 1018.14 1017.89 1017.72 1017.61 1017.56 1017.52 1017.47 1017.36 1017.18 1016.94 1016.65 1016.33 1016.03 1015.75 1015.52 1015.33 1015.15 1014.99 1014.82
1012.75 1012.60 1012.49 1012.49 1012.60 1012.87 1013.28 1013.82 1014.44 1015.10 1015.74 1016.31 1016.80 1017.18 1017.47 1017.69 1017.87 1018.06 1018.27 1018.52 1018.79 1019.07 1019.32 1019.51 1019.60 1019.58 1019.45 1019.23 1018.96 1018.68 1018.43 1018.24 1018.12 1018.05 1018.00 1017.96 1017.87 1017.72 1017.50 1017.21 1016.86 1016.50 1016.15 1015.83 1015.54 1015.29 1015.07 1014.85 1014.64
1013.09 1012.98 1012.95 1013.05 1013.27 1013.62 1014.08 1014.61 1015.19 1015.75 1016.27 1016.73 1017.12 1017.44 1017.70 1017.95 1018.19 1018.44 1018.71 1019.00 1019.28 1019.53 1019.72 1019.83 1019.84 1019.75 1019.58 1019.36 1019.13 1018.91 1018.73 1018.62 1018.55 1018.52 1018.50 1018.45 1018.34 1018.16 1017.90 1017.56 1017.19 1016.80 1016.41 1016.06 1015.74 1015.45 1015.19 1014.94 1014.68
1013.33 1013.27 1013.33 1013.52 1013.84 1014.28 1014.78 1015.31 1015.82 1016.30 1016.71 1017.06 1017.36 1017.63 1017.89 1018.17 1018.47 1018.79 1019.12 1019.44 1019.72 1019.92 1020.05 1020.07 1020.01 1019.86 1019.68 1019.47 1019.28 1019.13 1019.03 1018.99 1018.98 1018.99 1018.98 1018.93 1018.81 1018.61 1018.33 1017.99 1017.60 1017.20 1016.80 1016.43 1016.10 1015.79 1015.50 1015.21 1014.92
1013.40 1013.39 1013.54 1013.84 1014.27 1014.78 1015.32 1015.84 1016.30 1016.68 1016.99 1017.24 1017.46 1017.69 1017.96 1018.27 1018.63 1019.02 1019.41 1019.75 1020.02 1020.20 1020.27 1020.23 1020.11 1019.94 1019.74 1019.56 1019.42 1019.34 1019.31 1019.33 1019.37 1019.41 1019.42 1019.37 1019.25 1019.05 1018.77 1018.44 1018.06 1017.67 1017.29 1016.92 1016.58 1016.25 1015.94 1015.63 1015.30
1013.27 1013.33 1013.57 1013.97 1014.50 1015.09 1015.67 1016.18 1016.59 1016.88 1017.09 1017.24 1017.40 1017.59 1017.86 1018.20 1018.62 1019.07 1019.50 1019.88 1020.17 1020.33 1020.37 1020.31 1020.16 1019.98 1019.80 1019.66 1019.57 1019.54 1019.57 1019.63 1019.71 1019.77 1019.78 1019.74 1019.63 1019.44 1019.19 1018.88 1018.54 1018.18 1017.82 1017.46 1017.12 1016.78 1016.44 1016.10 1015.74
1013.01 1013.12 1013.45 1013.96 1014.58 1015.24 1015.84 1016.33 1016.69 1016.90 1017.01 1017.07 1017.15 1017.31 1017.57 1017.95 1018.41 1018.92 1019.41 1019.84 1020.15 1020.33 1020.38 1020.32 1020.19 1020.04 1019.90 1019.80 1019.76 1019.77 1019.83 1019.91 1020.00 1020.06 1020.07 1020.03 1019.93 1019.77 1019.56 1019.30 1019.01 1018.69 1018.35 1018.01 1017.66 1017.31 1016.95 1016.57 1016.18
1012.70 1012.88 1013.30 1013.89 1014.58 1015.28 1015.89 1016.35 1016.64 1016.76 1016.78 1016.76 1016.77 1016.89 1017.15 1017.55 1018.06 1018.62 1019.17 1019.66 1020.02 1020.25 1020.34 1020.33 1020.25 1020.14 1020.05 1020.00 1020.00 1020.04 1020.11 1020.19 1020.25 1020.30 1020.30 1020.26 1020.17 1020.05 1019.88 1019.67 1019.42 1019.14 1018.83 1018.50 1018.15 1017.78 1017.40 1017.00 1016.59
1012.48 1012.73 1013.22 1013.87 1014.60 1015.31 1015.90 1016.31 1016.52 1016.55 1016.46 1016.36 1016.31 1016.40 1016.65 1017.07 1017.62 1018.24 1018.86 1019.41 1019.85 1020.14 1020.31 1020.36 1020.35 1020.31 1020.27 1020.26 1020.29 1020.34 1020.40 1020.46 1020.49 1020.50 1020.48 1020.44 1020.36 1020.26 1020.13 1019.97 1019.77 1019.53 1019.25 1018.93 1018.57 1018.19 1017.79 1017.38 1016.96
1012.48 1012.79 1013.32 1014.00 1014.74 1015.42 1015.95 1016.27 1016.38 1016.31 1016.13 1015.94 1015.84 1015.90 1016.15 1016.59 1017.19 1017.87 1018.55 1019.17 1019.68 1020.06 1020.30 1020.43 1020.50 1020.52 1020.54 1020.57 1020.62 1020.67 1020.71 1020.73 1020.72 1020.69 1020.65 1020.58 1020.51 1020.43 1020.33 1020.21 1020.05 1019.84 1019.58 1019.27 1018.91 1018.52 1018.12 1017.71 1017.30
1012.78 1013.13 1013.68 1014.35 1015.05 1015.65 1016.09 1016.30 1016.30 1016.11 1015.84 1015.58 1015.43 1015.47 1015.72 1016.19 1016.82 1017.55 1018.30 1018.98 1019.56 1020.00 1020.32 1020.53 1020.66 1020.75 1020.82 1020.88 1020.94 1020.98 1021.00 1020.99 1020.95 1020.88 1020.80 1020.72 1020.64 1020.57 1020.49 1020.40 1020.27 1020.08 1019.84 1019.54 1019.19 1018.81 1018.42 1018.03 1017.66
1013.38 1013.75 1014.30 1014.92 1015.54 1016.04 1016.35 1016.43 1016.30 1016.00 1015.64 1015.31 1015.13 1015.15 1015.41 1015.89 1016.56 1017.32 1018.10 1018.83 1019.46 1019.95 1020.32 1020.59 1020.78 1020.92 1021.03 1021.13 1021.21 1021.25 1021.26 1021.22 1021.15 1021.05 1020.95 1020.85 1020.76 1020.69 1020.63 1020.55 1020.43 1020.27 1020.04 1019.76 1019.43 1019.08 1018.72 1018.38 1018.05
1014.21 1014.59 1015.10 1015.65 1016.16 1016.53 1016.70 1016.64 1016.38 1015.97 1015.53 1015.15 1014.93 1014.94 1015.21 1015.70 1016.38 1017.15 1017.95 1018.69 1019.33 1019.85 1020.25 1020.55 1020.78 1020.97 1021.12 1021.25 1021.36 1021.42 1021.44 1021.40 1021.32 1021.22 1021.10 1020.99 1020.89 1020.82 1020.75 1020.67 1020.57 1020.42 1020.21 1019.95 1019.66 1019.34 1019.03 1018.75 1018.49
1015.14 1015.51 1015.97 1016.44 1016.83 1017.07 1017.10 1016.90 1016.52 1016.02 1015.50 1015.08 1014.84 1014.84 1015.09 1015.58 1016.24 1017.00 1017.78 1018.50 1019.13 1019.64 1020.05 1020.36 1020.62 1020.84 1021.03 1021.21 1021.36 1021.46 1021.51 1021.51 1021.45 1021.35 1021.23 1021.12 1021.02 1020.94 1020.86 1020.79 1020.68 1020.54 1020.36 1020.13 1019.87 1019.61 1019.36 1019.14 1018.95
1016.02 1016.37 1016.78 1017.16 1017.45 1017.56 1017.46 1017.15 1016.67 1016.10 1015.53 1015.08 1014.82 1014.80 1015.03 1015.48 1016.11 1016.82 1017.54 1018.22 1018.80 1019.28 1019.67 1019.99 1020.26 1020.51 1020.75 1020.98 1021.19 1021.35 1021.46 1021.51 1021.50 1021.43 1021.34 1021.24 1021.14 1021.05 1020.97 1020.89 1020.79 1020.65 1020.49 1020.30 1020.08 1019.87 1019.68 1019.52 1019.40
1016.72 1017.05 1017.40 1017.71 1017.90 1017.91 1017.72 1017.33 1016.79 1016.17 1015.58 1015.11 1014.83 1014.78 1014.98 1015.38 1015.94 1016.57 1017.22 1017.82 1018.34 1018.77 1019.13 1019.43 1019.72 1020.00 1020.29 1020.58 1020.86 1021.10 1021.29 1021.41 1021.46 1021.45 1021.40 1021.32 1021.24 1021.15 1021.06 1020.97 1020.87 1020.75 1020.61 1020.44 1020.27 1020.11 1019.97 1019.87 1019.79
1017.16 1017.46 1017.77 1018.01 1018.13 1018.07 1017.82 1017.39 1016.82 1016.20 1015.61 1015.13 1014.84 1014.77 1014.91 1015.25 1015.72 1016.26 1016.81 1017.32 1017.76 1018.14 1018.46 1018.75 1019.05 1019.36 1019.70 1020.05 1020.41 1020.73 1021.00 1021.20 1021.32 1021.38 1021.38 1021.34 1021.27 1021.20 1021.12 1021.03 1020.93 1020.82 1020.70 1020.56 1020.43 1020.31 1020.21 1020.14 1020.10
1017.34 1017.60 1017.85 1018.03 1018.10 1018.00 1017.73 1017.30 1016.75 1016.15 1015.59 1015.13 1014.84 1014.74 1014.83 1015.09 1015.47 1015.91 1016.35 1016.77 1017.14 1017.46 1017.75 1018.03 1018.33 1018.67 1019.05 1019.45 1019.86 1020.25 1020.60 1020.87 1021.07 1021.19 1021.25 1021.25 1021.22 1021.17 1021.11 1021.03 1020.94 1020.85 1020.75 1020.64 1020.53 1020.44 1020.37 1020.32 1020.29
1017.31 1017.51 1017.70 1017.83 1017.85 1017.74 1017.47 1017.07 1016.57 1016.03 1015.52 1015.10 1014.82 1014.70 1014.75 1014.93 1015.22 1015.56 1015.91 1016.25 1016.55 1016.82 1017.08 1017.35 1017.66 1018.01 1018.41 1018.84 1019.28 1019.71 1020.11 1020.44 1020.69 1020.87 1020.98 1021.04 1021.05 1021.04 1021.00 1020.95 1020.89 1020.82 1020.74 1020.66 1020.58 1020.51 1020.45 1020.41 1020.38
Thickness
5672 5679 5684 5683 5672 5671 5684 5709 5727 5732 5738 5747 5753 5752 5741 5731 5728 5714 5728 5743 5745 5745 5743 5742 5742 5742 5741 5741 5741 5740 5740 5739 5739 5738 5738 5738 5737 5737 5736 5736 5735 5735 5734 5734 5734 5733 5732 5732 5731
5660 5669 5670 5666 5660 5664 5687 5708 5718 5729 5735 5742 5745 5743 5734 5724 5726 5724 5729 5736 5741 5740 5738 5737 5737 5737 5737 5737 5737 5736 5736 5736 5735 5735 5735 5734 5734 5734 5733 5733 5732 5732 5732 5731 5731 5730 5729 5728 5727
5649 5658 5654 5654 5659 5672 5692 5710 5715 5723 5729 5732 5728 5729 5723 5715 5719 5720 5725 5733 5735 5734 5733 5732 5733 5733 5733 5733 5733 5733 5732 5732 5732 5731 5731 5731 5731 5730 5730 5730 5729 5729 5728 5728 5727 5726 5726 5725 5724
5636 5638 5643 5646 5659 5682 5698 5709 5712 5712 5716 5722 5717 5708 5708 5710 5714 5716 5723 5728 5729 5728 5727 5727 5728 5728 5728 5729 5728 5728 5728 5728 5728 5728 5727 5727 5727 5727 5726 5726 5725 5725 5725 5724 5724 5723 5722 5722 5721
5625 5625 5628 5637 5658 5681 5695 5702 5706 5701 5702 5709 5709 5698 5694 5701 5708 5712 5717 5721 5721 5721 5722 5722 5722 5723 5723 5724 5724 5724 5724 5724 5724 5723 5724 5723 5723 5723 5723 5722 5722 5721 5721 5721 5720 5719 5719 5718 5718
5610 5619 5621 5631 5651 5672 5685 5693 5696 5694 5695 5700 5700 5691 5685 5694 5699 5704 5709 5712 5714 5715 5716 5716 5717 5718 5718 5719 5719 5719 5719 5719 5719 5719 5719 5720 5720 5719 5719 5718 5718 5717 5717 5717 5716 5716 5715 5715 5714
5603 5611 5621 5638 5646 5658 5674 5686 5687 5686 5685 5690 5697 5684 5680 5686 5692 5698 5702 5705 5706 5708 5709 5710 5711 5712 5713 5713 5714 5714 5714 5715 5715 5715 5715 5715 5715 5715 5715 5714 5714 5713 5713 5713 5713 5712 5712 5711 5711
5601 5607 5619 5633 5640 5649 5666 5675 5680 5680 5677 5686 5690 5680 5675 5680 5687 5692 5694 5697 5698 5700 5702 5704 5705 5706 5707 5708 5709 5709 5710 5710 5710 5711 5711 5711 5712 5711 5711 5711 5710 5709 5709 5709 5708 5708 5708 5707 5707
5596 5598 5611 5627 5635 5642 5655 5658 5662 5672 5671 5672 5676 5680 5678 5679 5682 5684 5685 5687 5689 5692 5694 5696 5698 5699 5701 5703 5703 5704 5705 5705 5706 5706 5706 5707 5707 5707 5707 5707 5706 5705 5705 5705 5704 5704 5704 5703 5703
5588 5591 5607 5623 5633 5637 5645 5649 5652 5656 5656 5657 5660 5665 5670 5672 5675 5676 5677 5678 5680 5683 5686 5688 5690 5692 5694 5696 5697 5698 5699 5700 5700 5701 5701 5702 5702 5702 5702 5702 5702 5701 5701 5700 5700 5700 5699 5699 5699
5586 5591 5601 5614 5628 5634 5636 5640 5648 5647 5645 5651 5653 5656 5661 5664 5666 5668 5669 5671 5673 5675 5678 5680 5683 5685 5687 5689 5691 5692 5693 5694 5694 5695 5695 5696 5696 5697 5697 5696 5696 5696 5696 5695 5695 5695 5695 5695 5696
5581 5589 5599 5605 5617 5624 5628 5632 5636 5641 5643 5651 5653 5654 5655 5656 5658 5660 5662 5664 5666 5668 5670 5673 5675 5677 5679 5681 5683 5685 5686 5687 5688 5688 5688 5689 5690 5690 5690 5690 5690 5690 5690 5690 5690 5691 5691 5692 5692
5576 5582 5592 5600 5608 5616 5621 5622 5625 5629 5639 5644 5646 5647 5648 5650 5651 5654 5656 5658 5660 5661 5663 5665 5668 5670 5672 5674 5676 5677 5678 5680 5681 5681 5682 5682 5682 5683 5683 5683 5684 5684 5684 5684 5684 5685 5686 5687 5688
5576 5581 5587 5595 5601 5607 5610 5612 5617 5620 5630 5633 5636 5638 5641 5644 5645 5647 5649 5650 5653 5654 5656 5658 5660 5662 5664 5666 5668 5669 5670 5672 5673 5674 5675 5675 5675 5675 5676 5676 5676 5677 5677 5677 5677 5678 5679 5680 5681
5577 5577 5581 5589 5595 5600 5604 5600 5607 5617 5623 5625 5628 5632 5634 5637 5640 5641 5642 5643 5645 5647 5649 5651 5653 5655 5656 5657 5659 5661 5663 5665 5666 5667 5667 5668 5668 5668 5669 5669 5669 5669 5670 5670 5670 5670 5671 5672 5673
5575 5574 5571 5581 5591 5596 5596 5589 5604 5614 5617 5619 5623 5626 5627 5630 5633 5635 5636 5637 5638 5640 5641 5643 5646 5647 5648 5649 5651 5654 5656 5657 5658 5659 5660 5660 5660 5660 5661 5661 5661 5661 5662 5662 5662 5662 5662 5663 5664
5569 5568 5570 5576 5589 5594 5594 5590 5600 5611 5614 5616 5619 5621 5623 5624 5626 5629 5630 5631 5632 5633 5634 5635 5637 5638 5640 5642 5644 5646 5648 5649 5650 5651 5651 5651 5652 5652 5652 5652 5653 5653 5653 5653 5653 5654 5654 5654 5655
5563 5571 5574 5575 5584 5591 5591 5591 5598 5606 5611 5613 5616 5618 5620 5620 5622 5624 5625 5625 5626 5626 5627 5628 5629 5630 5632 5634 5636 5638 5639 5640 5640 5641 5641 5642 5643 5643 5644 5644 5644 5644 5644 5644 5644 5644 5645 5645 5646
5578 5577 5574 5575 5584 5586 5586 5589 5596 5603 5606 5609 5612 5615 5616 5618 5620 5620 5620 5620 5620 5619 5620 5621 5622 5623 5624 5625 5626 5628 5628 5629 5631 5631 5632 5632 5633 5634 5635 5635 5635 5635 5635 5634 5635 5635 5635 5635 5636
5577 5572 5570 5574 5582 5585 5584 5588 5597 5602 5604 5608 5610 5612 5614 5615 5614 5615 5614 5614 5613 5613 5613 5614 5615 5616 5616 5617 5618 5619 5619 5620 5621 5621 5622 5623 5623 5624 5625 5625 5625 5625 5625 5625 5625 5624 5624 5624 5625
5570 5568 5569 5571 5578 5583 5581 5583 5594 5602 5605 5608 5610 5612 5613 5612 5611 5610 5610 5609 5608 5607 5606 5607 5607 5608 5608 5609 5610 5611 5612 5612 5612 5612 5612 5613 5614 5614 5615 5615 5615 5615 5615 5615 5615 5614 5613 5613 5613
5561 5569 5572 5571 5568 5569 5580 5568 5591 5599 5600 5603 5604 5606 5608 5609 5609 5607 5606 5605 5603 5601 5600 5600 5600 5600 5600 5601 5601 5601 5601 5601 5602 5602 5603 5604 5604 5604 5605 5605 5605 5605 5605 5605 5605 5605 5604 5603 5603
5560 5568 5570 5572 5570 5568 5576 5570 5582 5598 5595 5599 5601 5602 5604 5604 5604 5603 5602 5600 5598 5595 5593 5593 5593 5593 5593 5593 5593 5593 5593 5593 5594 5594 5595 5595 5595 5595 5595 5595 5595 5595 5595 5595 5594 5594 5594 5594 5593
5563 5566 5568 5569 5563 5557 5572 5569 5575 5589 5596 5600 5601 5601 5600 5600 5599 5598 5597 5594 5591 5589 5587 5586 5586 5586 5586 5586 5585 5585 5584 5585 5585 5585 5585 5585 5586 5585 5585 5585 5585 5585 5585 5585 5584 5584 5583 5583 5583
5560 5554 5549 5548 5550 5555 5571 5566 5572 5592 5599 5599 5598 5597 5596 5595 5593 5591 5589 5587 5585 5583 5581 5580 5579 5579 5579 5579 5578 5578 5577 5577 5576 5576 5576 5577 5576 5576 5576 5576 5576 5575 5575 5574 5574 5574 5573 5572 5571
5556 5554 5543 5541 5547 5555 5559 5558 5575 5592 5594 5593 5593 5591 5591 5589 5587 5586 5584 5581 5579 5577 5575 5574 5574 5573 5573 5572 5572 5571 5571 5570 5569 5569 5569 5569 5568 5568 5568 5567 5567 5566 5565 5565 5564 5563 5562 5562 5561
5555 5551 5553 5545 5549 5546 5558 5573 5582 5586 5586 5586 5586 5585 5583 5582 5582 5580 5578 5576 5574 5572 5570 5569 5568 5567 5567 5566 5565 5564 5564 5563 5562 5562 5562 5561 5561 5560 5560 5559 5558 5557 5556 5555 5554 5553 5552 5551 5550
5551 5552 5546 5542 5541 5544 5562 5569 5566 5574 5578 5580 5580 5578 5578 5578 5576 5575 5573 5571 5569 5567 5566 5564 5563 5562 5561 5559 5558 5558 5557 5556 5555 5555 5554 5553 5552 5552 5551 5550 5549 5548 5547 5545 5544 5543 5542 5540 5539
5547 5548 5547 5545 5545 5537 5544 5558 5575 5574 5576 5575 5575 5575 5574 5573 5571 5569 5567 5566 5564 5562 5560 5558 5557 5556 5554 5553 5552 5551 5550 5549 5548 5547 5546 5545 5544 5543 5542 5542 5540 5539 5537 5536 5534 5532 5531 5530 5529
5550 5551 5547 5536 5539 5542 5535 5549 5575 5573 5573 5572 5571 5572 5571 5570 5568 5565 5563 5561 5559 5556 5554 5552 5551 5549 5548 5547 5545 5543 5542 5541 5540 5539 5538 5537 5536 5535 5534 5533 5531 5529 5528 5526 5524 5522 5521 5520 5518